Regional Weather Roundup
Issued by NWS

Home | Current Version | Previous Version | Graphics & Text | Print | Product List | Glossary On
Versions: 1 2 3 4 5 6 7 8 9 10 11 12 13 14 15 16 17 18 19 20 21 22 23 24 25 26 27 28 29 30 31 32 33 34 35 36 37 38 39 40 41 42 43 44 45 46 47 48 49 50
000
ASUS43 KOAX 260710
RWRNE

WEATHER ROUNDUP FOR NEBRASKA
NATIONAL WEATHER SERVICE OMAHA NE
200 AM CDT THU MAR 26 2015

NOTES: SATELLITE DATA IS BEING USED TO AUGMENT CLOUD COVER ABOVE
       12000 FEET.
       "FAIR" INDICATES FEW OR NO CLOUDS BELOW 12,000 FEET WITH NO
       SIGNIFICANT WEATHER AND/OR OBSTRUCTIONS TO VISIBILITY.

  * THESE STATIONS DO NOT REPORT WEATHER SUCH AS RAIN...SNOW OR FOG.

NEZ001>004-019>022-054>056-260800-
NEBRASKA PANHANDLE

CITY           SKY/WX    TMP DP  RH WIND       PRES   REMARKS
SCOTTSBLUFF    FAIR      26  22  84 NE3       30.21F
ALLIANCE       FAIR      23  17  78 CALM      30.20F
CHADRON        FAIR      24  20  84 SW5       30.20F WCI  18
KIMBALL        MOCLDY    28  27  95 W5        30.19F WCI  23
SIDNEY         MOCLDY    25  20  81 NW6       30.21F WCI  18
$$

NEZ057>060-069>072-079>082-260800-
SOUTHWEST NEBRASKA

CITY           SKY/WX    TMP DP  RH WIND       PRES   REMARKS
NORTH PLATTE   FAIR      23  17  78 CALM      30.24F
IMPERIAL         N/A     29  22  75 W3        30.25S
LEXINGTON      FAIR      23  18  79 NW5       30.25S WCI  17
MCCOOK         FAIR      26  19  74 W5        30.26S WCI  20
OGALLALA       FAIR      24  19  81 W5        30.23F WCI  18
$$

NEZ005>010-023>029-035>040-094-260800-
NORTH CENTRAL NEBRASKA

CITY           SKY/WX    TMP DP  RH WIND       PRES   REMARKS
VALENTINE      FAIR      21  17  84 W3        30.22F
AINSWORTH      FAIR      25  20  81 W5        30.22F WCI  19
BROKEN BOW     FAIR      20  15  81 CALM      30.22F
O`NEILL        FAIR      23  19  83 NW7       30.23R WCI  15
ORD            FAIR      23  16  74 CALM      30.23S
THEDFORD       FAIR      23  19  87 W3        30.23S
$$

NEZ041-046>049-061>064-073>077-083>087-260800-
SOUTH CENTRAL NEBRASKA

CITY           SKY/WX    TMP DP  RH WIND       PRES   REMARKS
GRAND ISLAND   FAIR      24  19  81 W7        30.25F WCI  16
AURORA         FAIR      26  23  89 W8        30.24F WCI  17
HASTINGS       FAIR      26  20  77 NW8       30.23F WCI  18
HEBRON         FAIR      31  26  81 NW7       30.23F WCI  25
HOLDREGE       FAIR      25  19  78 NW5       30.23F WCI  19
KEARNEY *      FAIR      27  18  69 NW7       30.24F WCI  19
YORK           FAIR      28  27  93 NW9       30.23F WCI  20
$$

NEZ011>018-030>034-042>045-260800-
NORTHEAST NEBRASKA

CITY           SKY/WX    TMP DP  RH WIND       PRES   REMARKS
NORFOLK        FAIR      30  22  72 NW3       30.22F
ALBION         FAIR      22  18  83 CALM      30.24S
BLAIR          FAIR      33  25  72 N7        30.20F WCI  27
COLUMBUS *     FAIR      27  18  69 NW7       30.25F WCI  19
FREMONT        FAIR      29  25  85 NW5       30.22F WCI  24
TEKAMAH        FAIR      29  23  78 W14       30.22F WCI  18
WAYNE          FAIR      25  21  85 CALM      30.23F
$$

NEZ050>053-065>068-078-088>093-260800-
SOUTHEAST NEBRASKA

CITY           SKY/WX    TMP DP  RH WIND       PRES   REMARKS
LINCOLN        FAIR      30  25  81 N8        30.22F WCI  22
OMAHA EPPLEY   FAIR      31  28  89 N6        30.20F WCI  25
BEATRICE       FAIR      32  27  82 N10       30.20S WCI  24
FALLS CITY     FAIR      34  29  82 NW8       30.17F WCI  27
NEBRASKA CITY  FAIR      33  28  83 NW10      30.18F WCI  25
PLATTSMOUTH    FAIR      31  26  80 NW9       30.19S WCI  23
$$

NEZ044-045-051>053-067-260800-
OMAHA AREA

CITY           SKY/WX    TMP DP  RH WIND       PRES   REMARKS
OMAHA EPPLEY   FAIR      31  28  89 N6        30.20F WCI  25
BLAIR          FAIR      33  25  72 N7        30.20F WCI  27
FREMONT        FAIR      29  25  85 NW5       30.22F WCI  24
MILLARD        FAIR      33  26  74 NW5       30.21S WCI  29
OFFUTT AFB     FAIR      30  24  81 N6        30.19F WCI  24
PLATTSMOUTH    FAIR      31  26  80 NW9       30.19S WCI  23
WAHOO          FAIR      31  24  73 NW5       30.22S WCI  27
$$


USA.gov is the U.S. government's official web portal to all federal, state and local government web resources and services.